Weather History for Alexandria, Egypt

Change the Weather History Date:

Thursday, October 18, 2012

  Actual Average Record
Temperature  
Mean Temperature 78 °F -  
Max Temperature 86 °F 74 °F 89 °F (2010)
Min Temperature 70 °F 60 °F 59 °F (2005)
Cooling Degree Days 13    
Growing Degree Days 28 (Base 50)    
Moisture  
Dew Point 70 °F    
Average Humidity 74    
Maximum Humidity 94    
Minimum Humidity 52    
Precipitation  
Precipitation 0.00 in 0.03 in - ()
Sea Level Pressure  
Sea Level Pressure 29.93 in    
Wind  
Wind Speed 6 mph ()    
Max Wind Speed 12 mph    
Max Gust Speed -    
Visibility 6.1 miles    
Events      
Averages and records for this station are not official NWS values.
T = Trace of Precipitation, MM = Missing Value Source: Averaged Metar Reports

Daily Weather History Graph

Daily Weather History Graph

Search for Another Location

Airport:

Trip Planner

Search our weather history database for the weather conditions in past years. The results will help you decide how hot, cold, wet, or windy it might be!

Date:

Astronomy

Oct. 18, 2012 Rise Set
Actual Time 6:05 AM EET 5:24 PM EET
Civil Twilight 5:40 AM EET 5:49 PM EET
Nautical Twilight 5:12 AM EET 6:17 PM EET
Astronomical Twilight 4:44 AM EET 6:45 PM EET
Moon 9:12 AM EET (10/18) 7:52 PM EET (10/18)
Length of Visible Light 12h 08m
Length of Day
11h 19m
Waxing Crescent, 12% of the Moon is Illuminated
Oct 18
Waxing Crescent
Oct 22
First Quarter
Oct 29
Full
Nov 7
Last Quarter
Nov 14
New

Hourly Weather History & Observations

Time (EET) Temp. Heat Index Dew Point Humidity Pressure Visibility Wind Dir Wind Speed Gust Speed Precip Events Conditions
12:00 AM 77.0 °F - 73.4 °F 89% 29.95 in 6.2 mi NNE 8.1 mph - N/A   Scattered Clouds
1:05 AM 77.0 °F - 71.6 °F 83% 29.95 in 6.2 mi NNE 6.9 mph - N/A   Scattered Clouds
2:00 AM 75 °F - 71 °F 83% 29.96 in 6 mi ENE 3.5 mph - -   Partly Cloudy
2:00 AM 75.2 °F - 71.6 °F 89% 29.95 in 6.2 mi ENE 3.5 mph - N/A   Scattered Clouds
3:00 AM 75.2 °F - 71.6 °F 89% 29.95 in 6.2 mi North 5.8 mph - N/A   Scattered Clouds
4:00 AM 71.6 °F - 69.8 °F 94% 29.95 in 6.2 mi Calm Calm - N/A   Scattered Clouds
5:00 AM 71.6 °F - 69.8 °F 94% 29.95 in 6.2 mi Calm Calm - N/A   Scattered Clouds
6:00 AM 73.4 °F - 71.6 °F 94% 29.95 in 6.2 mi NE 5.8 mph - N/A   Scattered Clouds
7:00 AM 73.4 °F - 71.6 °F 94% 29.95 in 6.2 mi NE 3.5 mph - N/A   Scattered Clouds
8:00 AM 78 °F - 71 °F 74% 29.97 in 6 mi NE 6.9 mph - -   Scattered Clouds
8:00 AM 78.8 °F - 71.6 °F 78% 29.95 in 6.2 mi NE 6.9 mph - N/A   Partly Cloudy
9:00 AM 82.4 °F 86.3 °F 69.8 °F 66% 29.95 in - ENE 6.9 mph - N/A   Clear
10:00 AM 84.2 °F 88.4 °F 69.8 °F 62% 29.95 in - NE 6.9 mph - N/A   Clear
11:00 AM 84.2 °F 87.3 °F 68.0 °F 58% 29.95 in - North 9.2 mph - N/A   Clear
12:00 PM 86.0 °F 90.4 °F 69.8 °F 58% 29.92 in - NE 6.9 mph - N/A   Clear
1:00 PM 86.0 °F 91.8 °F 71.6 °F 62% 29.92 in - NNE 8.1 mph - N/A   Clear
2:00 PM 86 °F - 71 °F 52% 29.91 in 6 mi North 11.5 mph - -  
2:00 PM 86.0 °F 91.8 °F 71.6 °F 62% 29.92 in - North 11.5 mph - N/A   Clear
3:00 PM 86.0 °F 89.4 °F 68.0 °F 55% 29.89 in - North 9.2 mph - N/A   Clear
4:00 PM 84.2 °F 87.3 °F 68.0 °F 58% 29.89 in - NNE 6.9 mph - N/A   Clear
5:00 PM 80.6 °F 83.2 °F 68.0 °F 65% 29.89 in - North 9.2 mph - N/A   Clear
6:00 PM 78.8 °F - 68.0 °F 69% 29.89 in - North 6.9 mph - N/A   Clear
7:00 PM 77.0 °F - 69.8 °F 78% 29.92 in - North 9.2 mph - N/A   Clear
8:00 PM 78 °F - 69 °F 66% 29.93 in 6 mi North 10.4 mph - -  
8:00 PM 77.0 °F - 68.0 °F 74% 29.92 in - North 10.4 mph - N/A   Clear
9:00 PM 77.0 °F - 69.8 °F 78% 29.92 in - North 9.2 mph - N/A   Clear
10:00 PM 77.0 °F - 69.8 °F 78% 29.92 in - NNE 6.9 mph - N/A   Clear
11:00 PM 75.2 °F - 69.8 °F 83% 29.92 in - North 5.8 mph - N/A   Clear